BADR-6

Last updated on Thu Nov 21 2024 00:02:41 GMT+0000 (Coordinated Universal Time)

1 33154U 08034B 24325.15396740 -.00000127 00000+0 00000+0 0 9991 2 33154 1.3626 85.6135 0002977 161.7780 236.1563 0.99012374 60006
UTC large
Height (km)
Speed (km/s)
/
Latitude / Longitude
Inclination (degrees)
Orbital Period (minutes)
Azimuth
Elevation
Range (km)
Doppler Factor

Next 0 passes for location: London (51.5072 / 0.1276)

Sorry there are no passes over London.